Flag for Russia Weather past 2 weeks in Saint-Petersburg, Russia

Now
57 °F

Sunny.


Feels Like: 57 °F
Forecast: 66 / 85 °F
Wind: No wind

Location: St. Petersburg

Current Time: Jul 25, 2014 at 8:02:17 AM

Latest Report: Jul 25, 2014 at 7:30 AM


Visibility: 10 mi

Pressure: 30.21 "Hg

Humidity: 94%

Dew point: 55 °F

Location of Saint-PetersburgLocation

Historic Weather in Saint-Petersburg — Graph

°F

Saint-Petersburg temperature yesterday

Maximum temperature yesterday: 79 °F (at 1:30 PM)
Minimum temperature yesterday: 61 °F (at 4:30 AM)
Average temperature yesterday: 72 °F

Past Weeks' High & Low Weather Summary

 TemperatureHumidityPressure
High84 °F (Jul 13, 5:00 PM)100% (Jul 12, 5:30 AM)30.27 "Hg (Jul 12, 5:30 AM)
Low48 °F (Jul 11, 4:30 AM)34% (Jul 20, 2:30 PM)29.92 "Hg (Jul 13, 8:00 PM)
Average68 °F66%30.09 "Hg
* Reported Jul 10 6:00 AM — Jul 25 6:30 AM, Saint-Petersburg, Weather by CustomWeather, © 2014

Note: Actual official high and low records may vary slightly from our data, if they occured in-between our weather recording intervals... More about our weather records

Advertising

Saint-Petersburg weather history for previous 24 hours

 ConditionsComfort  
Time TempWeatherWind HumidityBarometerVisibility
6:30 AM
Jul 25
55 °FSunny.No wind88%30.21 "Hg10 mi
6:00 AM54 °FClear.No wind94%30.18 "Hg10 mi
5:30 AM54 °FClear.No wind94%30.18 "Hg10 mi
5:00 AM54 °FClear.No wind88%30.18 "Hg10 mi
4:30 AM54 °FClear.No wind88%30.18 "Hg10 mi
4:00 AM54 °FClear.No wind94%30.18 "Hg10 mi
3:30 AM55 °FClear.No wind88%30.18 "Hg10 mi
3:00 AM55 °FClear.No wind88%30.21 "Hg10 mi
2:30 AM55 °FClear.No wind88%30.18 "Hg10 mi
2:00 AM57 °FClear.No wind82%30.18 "Hg10 mi
1:30 AM57 °FClear.1 mph82%30.18 "Hg10 mi
1:00 AM59 °FClear.No wind77%30.18 "Hg10 mi
12:30 AM59 °FClear.No wind77%30.18 "Hg10 mi
12:00 AM63 °FClear.3 mph73%30.18 "Hg10 mi
11:30 PM
Jul 24
64 °FSunny.3 mph64%30.15 "Hg10 mi
11:00 PM70 °FSunny.3 mph50%30.15 "Hg10 mi
10:30 PM72 °FPassing clouds.3 mph44%30.15 "HgN/A
10:00 PM72 °FSunny.3 mph47%30.15 "Hg10 mi
9:30 PM73 °FSunny.6 mph41%30.15 "Hg10 mi
9:00 PM73 °FSunny.6 mph47%30.15 "Hg10 mi
8:30 PM75 °FSunny.6 mph41%30.15 "Hg10 mi
8:00 PM75 °FPassing clouds.8 mph41%30.15 "HgN/A
7:30 PM77 °FPassing clouds.6 mph39%30.15 "HgN/A
7:00 PM77 °FPassing clouds.8 mph39%30.15 "HgN/A
6:30 PM77 °FPassing clouds.6 mph42%30.15 "HgN/A
6:00 PM77 °FPassing clouds.8 mph42%30.15 "HgN/A
5:30 PM77 °FPassing clouds.8 mph42%30.15 "HgN/A
4:30 PM79 °FBroken clouds.10 mph39%30.18 "HgN/A
4:00 PM79 °FBroken clouds.10 mph39%30.15 "HgN/A
3:30 PM79 °FBroken clouds.10 mph42%30.18 "HgN/A
3:00 PM79 °FBroken clouds.8 mph42%30.18 "HgN/A
2:30 PM77 °FBroken clouds.8 mph47%30.15 "HgN/A
2:00 PM77 °FBroken clouds.10 mph47%30.18 "HgN/A
1:30 PM79 °FBroken clouds.13 mph45%30.15 "HgN/A
1:00 PM77 °FBroken clouds.10 mph51%30.15 "HgN/A
12:30 PM77 °FBroken clouds.8 mph51%30.15 "HgN/A
12:00 PM77 °FBroken clouds.8 mph51%30.15 "HgN/A
11:30 AM73 °FBroken clouds.10 mph61%30.15 "HgN/A
11:00 AM73 °FScattered clouds.8 mph65%30.15 "HgN/A
10:30 AM73 °FPassing clouds.6 mph65%30.15 "HgN/A
9:30 AM72 °FPassing clouds.6 mph69%30.15 "HgN/A
9:00 AM72 °FPassing clouds.6 mph69%30.15 "HgN/A
8:30 AM70 °FSunny.6 mph73%30.15 "Hg10 mi
8:00 AM68 °FPassing clouds.3 mph83%30.15 "HgN/A
Weather by CustomWeather, © 2014

See weather overviewHow to use our weather pages